Regional Weather Roundup
Issued by NWS Sterling, VA

Home | Current Version | Previous Version | Graphics & Text | Print | Product List | Glossary On
Versions: 1 2 3 4 5 6 7 8 9 10 11 12 13 14 15 16 17 18 19 20 21 22 23 24 25 26 27 28 29 30 31 32 33 34 35 36 37 38 39 40 41 42 43 44 45 46 47 48 49 50
000
ASUS41 KLWX 282210
RWRLWX

REGIONAL WEATHER ROUNDUP
NATIONAL WEATHER SERVICE BALTIMORE MD/WASHINGTON DC
600 PM EDT THU APR 28 2016

Note: "FAIR" indicates few or no clouds below 12,000 feet
with no significant weather and/or obstructions to visibility.
 TC=TEMPERATURE CELSIUS

 * =Non NWS site. Station does not report precipitation (e.g. rain,
    snow, etc.), thunder, or fog.

DCZ001-MDZ009-015-VAZ040>042-051-053>054-282300-
WASHINGTON METRO

CITY           SKY/WX    TMP DP  RH WIND       PRES   REMARKS
WASHINGTON NAT DRIZZLE   51  49  92 NE15      29.98S FOG
DULLES         DRIZZLE   51  49  92 E12       29.97R FOG
ANDREWS AFB    CLOUDY    49  47  95 E13       29.97R FOG
FT BELVOIR     CLOUDY    52  50  93 VRB5      29.97R FOG
QUANTICO       CLOUDY    55  53  93 E9        29.97R
COLLEGE PARK*  CLOUDY    46  45  93 NE6       29.99R
LEESBURG*      CLOUDY    50  50 100 NE9       29.98S FOG
MANASSAS*      CLOUDY    54  54 100 CALM      29.96S
GAITHERSBURG*  CLOUDY    46  45  93 E5        30.02S

$$

MDZ006>007-011-014-282300-
BALTIMORE METRO

CITY           SKY/WX    TMP DP  RH WIND       PRES   REMARKS
BWI AIRPORT    CLOUDY    50  42  74 E14       30.00R
MD SCIENCE CTR   N/A     51  41  68 MISG      30.01R
MARTIN STATE   PTSUNNY   52  43  71 E7        30.04R
ANNAPOLIS      CLOUDY    50  45  83 MISG      30.00R
FORT MEADE*    CLOUDY    46  45  93 E7        30.02R

$$

MDZ012-015-019>023-282300-
MARYLAND EASTERN SHORE

CITY           SKY/WX    TMP DP  RH WIND       PRES   REMARKS
OCEAN CITY     FOG       51  50  96 NE9       29.97S VSB 1
SALISBURY      CLOUDY    50  49  96 NE7       29.97S FOG
CAMBRIDGE*     CLOUDY    46  46 100 NE3       29.98S
EASTON*        CLOUDY   N/A N/A N/A E7        30.03R FOG

$$

MDZ017>025-282300-
SOUTHERN MARYLAND

CITY           SKY/WX    TMP DP  RH WIND       PRES   REMARKS
PATUXENT RIVER DRIZZLE   51  49  92 E8        29.96S FOG
ST INIGOES     CLOUDY    53  52  96 NE7       29.96R FOG
LEONARDTOWN*   CLOUDY    52  50  93 E7        29.97F

$$

MDZ003>005-282300-
NORTH CENTRAL MARYLAND

CITY           SKY/WX    TMP DP  RH WIND       PRES   REMARKS
FREDERICK*     CLOUDY    46  46 100 N9        30.01F FOG
HAGERSTOWN APT CLOUDY    48  43  82 NE7       29.98S
WESTMINSTER*   LGT RAIN  46  45  93 E7        29.98F

$$

MDZ501>502-282300-
WESTERN MARYLAND

CITY           SKY/WX    TMP DP  RH WIND       PRES   REMARKS
OAKLAND*       FOG       45  45 100 SE13      29.91R VSB<1/4
CUMBERLAND*    CLOUDY    50  46  87 NE6       30.00R

$$

VAZ025>031-282300-
SHENANDOAH VALLEY

CITY           SKY/WX    TMP DP  RH WIND       PRES   REMARKS
WINCHESTER*    CLOUDY    50  48  93 NE3       29.96R FOG
FRONT ROYAL*   CLOUDY    52  50  93 NE6       29.93R
LURAY*         CLOUDY    54  54 100 N9        29.93R
NEW MARKET*    CLOUDY    52  52  99 N8        29.93R
STAUNTON*      CLOUDY    59  58  97 N6        29.94R THUNDER
WAYNESBORO*    CLOUDY    55  54  97 MISG      29.90R VSB 1/4

$$

WVZ021-048>050-054>055-282300-
EASTERN WEST VIRGINIA PANHANDLE

CITY           SKY/WX    TMP DP  RH WIND       PRES   REMARKS
MARTINSBURG    CLOUDY    47  45  93 N8        29.98R FOG
PETERSBURG*    CLOUDY    55  53  92 N5        29.94R

$$

VAZ036>039-050-282300-
CENTRAL FOOTHILLS

CITY           SKY/WX    TMP DP  RH WIND       PRES   REMARKS
CHARLOTTESVILL CLOUDY    57  53  86 NE9       29.92R
CULPEPER*      CLOUDY    55  54  97 NE3       29.96R
ORANGE*        CLOUDY    55  55 100 NE5       29.96R
GORDONSVILLE*  CLOUDY    55  55  98 NE6       29.93S
WARRENTON*     CLOUDY    55  50  83 E3        29.95S

$$

VAZ055>057-282300-
NORTH AND CENTRAL PIEDMONT

CITY           SKY/WX    TMP DP  RH WIND       PRES   REMARKS
FREDERICKSBRG* CLOUDY    55  55 100 NE6       29.94F FOG
STAFFORD*      DRIZZLE   54  52  94 E6        30.00R

$$

NCZ024-NYZ072-PAZ021-071-VAZ022-071-282300-
OTHER REGIONAL OBSERVATIONS

CITY           SKY/WX    TMP DP  RH WIND       PRES   REMARKS
NEW YORK CITY  CLOUDY    53  30  41 S5        30.06R
PHILADELPHIA   CLOUDY    48  37  65 NE12      30.04S
PITTSBURGH     DRZL/FOG  50  47  89 N6        29.89R VSB 1
ROANOKE        PTSUNNY   68  62  81 E12       29.86S
RICHMOND       DRIZZLE   58  57  97 E7        29.91S FOG
RALEIGH        TSTM      68  64  88 CALM      29.84R

$$

ANZ530>537-282300-
MARINE OBSERVATIONS

STATION/POSITION TIME  TEMP    WIND        PRES
                       AIR SEA DIR/SP/G
                 (UTC) (F)     (DEG/KT/KT) (MB)
THOMAS PT LIGHT  2200   48 58   60/ 12/ 14 1016.9R
BALT KEY BRIDGE  2100   50      70/ 12/ 14 1015.6F
COVE POINT       2100   50     100/ 10/ 13 1015.0S
LEWISETTA        2100   54 60   80/  8/  9 1013.9R
SOLOMONS ISLAND  2100   53 61   80/ 10/ 11   N/A

$$




USA.gov is the U.S. government's official web portal to all federal, state and local government web resources and services.